Snowfall_Accumulation
0.0 0.0 0.0 0.0 0.0 0.0 0.0 0.0 0.0 0.0 0.0 0.0 0.0 0.0 0.0 0.0 0.0 0.0 0.0 0.0 0.0 0.0 0.0 0.0 0.0 0.0 0.0 0.0 0.0 0.0 0.0 0.0 0.0 0.0 0.0 0.0 0.0 0.0 0.0 0.0 0.0 0.0 0.0 0.0
0.0 0.0 0.0 0.0 0.0 0.0 0.0 0.0 0.0 0.0 0.0 0.0 0.0 0.0 0.0 0.0 0.0 0.0 0.0 0.0 0.0 0.0 0.0 0.0 0.0 0.0 0.0 0.0 0.0 0.0 0.0 0.0 0.0 0.0 0.0 0.0 0.0 0.0 0.0 0.0 0.0 0.0 0.0 0.0
0.0 0.0 0.0 0.0 0.0 0.0 0.0 0.0 0.0 0.0 0.0 0.0 0.0 0.0 0.0 0.0 0.0 0.0 0.0 0.0 0.0 0.0 0.0 0.0 0.0 0.0 0.0 0.0 0.0 0.0 0.0 0.0 0.0 0.0 0.0 0.0 0.0 0.0 0.0 0.0 0.0 0.0 0.0 0.0
0.0 0.0 0.0 0.0 0.0 0.0 0.0 0.0 0.0 0.0 0.0 0.0 0.0 0.0 0.0 0.0 0.0 0.0 0.0 0.0 0.0 0.0 0.0 0.0 0.0 0.0 0.0 0.0 0.0 0.0 0.0 0.0 0.0 0.0 0.0 0.0 0.0 0.0 0.0 0.0 0.0 0.0 0.0 0.0
0.0 0.0 0.0 0.0 0.0 0.0 0.0 0.0 0.0 0.0 0.0 0.0 0.0 0.0 0.0 0.0 0.0 0.0 0.0 0.0 0.0 0.0 0.0 0.0 0.0 0.0 0.0 0.0 0.0 0.0 0.0 0.0 0.0 0.0 0.0 0.0 0.0 0.0 0.0 0.0 0.0 0.0 0.0 0.0
0.0 0.0 0.0 0.0 0.0 0.0 0.0 0.0 0.0 0.0 0.0 0.1 0.0 0.0 0.0 0.0 0.0 0.0 0.0 0.0 0.0 0.0 0.0 0.0 0.0 0.0 0.0 0.0 0.0 0.0 0.0 0.0 0.0 0.0 0.0 0.0 0.0 0.0 0.0 0.0 0.0 0.0 0.0 0.0
0.0 0.0 0.0 0.0 0.0 0.0 0.0 0.0 0.1 0.3 1.1 0.4 0.0 0.1 0.0 0.0 0.0 0.0 0.0 0.0 0.0 0.0 0.0 0.0 0.0 0.0 0.0 0.0 0.0 0.0 0.0 0.0 0.0 0.0 0.0 0.0 0.0 0.0 0.0 0.0 0.0 0.0 0.0 0.0
0.0 0.0 0.0 0.0 0.0 0.0 0.0 0.0 0.3 0.6 0.9 0.3 0.1 0.1 0.0 0.0 0.0 0.0 0.0 0.0 0.0 0.0 0.0 0.0 0.0 0.0 0.0 0.0 0.0 0.0 0.0 0.0 0.0 0.0 0.0 0.0 0.0 0.0 0.0 0.0 0.0 0.0 0.0 0.0
0.0 0.0 0.0 0.0 0.0 0.0 0.0 0.0 0.0 0.1 2.3 1.2 0.0 0.0 0.0 0.0 0.0 0.0 0.0 0.0 0.0 0.0 0.0 0.0 0.0 0.0 0.0 0.0 0.0 0.0 0.0 0.0 0.0 0.0 0.0 0.0 0.0 0.0 0.0 0.0 0.0 0.0 0.0 0.0
0.0 0.0 0.0 0.0 0.0 0.0 0.0 0.0 0.2 0.2 3.3 2.2 0.0 0.0 0.0 0.0 0.0 0.0 0.0 0.0 0.0 0.0 0.0 0.0 0.0 0.0 0.0 0.0 0.0 0.0 0.0 0.0 0.0 0.0 0.0 0.0 0.0 0.0 0.0 0.0 0.0 0.0 0.0 0.0
0.0 0.0 0.0 0.0 0.0 0.0 0.0 0.0 0.0 0.0 0.2 1.2 1.2 0.0 0.0 0.0 0.0 0.0 0.0 0.0 0.0 0.0 0.0 0.0 0.0 0.0 0.0 0.0 0.0 0.0 0.0 0.0 0.0 0.0 0.0 0.0 0.0 0.0 0.0 0.0 0.0 0.0 0.0 0.0
0.0 0.0 1.2 0.0 0.0 0.0 0.0 0.0 0.0 0.6 0.2 0.3 0.7 0.8 0.0 0.0 0.0 0.0 0.0 0.0 0.0 0.0 0.0 0.0 0.0 0.0 0.0 0.0 0.0 0.0 0.0 0.0 0.0 0.0 0.0 0.0 0.0 0.0 0.0 0.0 0.0 0.0 0.0 0.0
0.0 0.3 2.8 0.7 0.0 0.0 0.0 0.0 0.0 0.0 0.6 2.3 5.3 1.1 0.0 0.0 0.0 0.0 0.0 0.0 0.0 0.0 0.0 0.0 0.0 0.0 0.0 0.0 0.0 0.0 0.0 0.0 0.0 0.0 0.0 0.0 0.0 0.0 0.0 0.0 0.0 0.0 0.0 0.0
nan 0.0 0.2 0.7 0.1 0.0 0.1 0.0 0.0 0.0 2.3 0.5 0.4 0.0 0.0 0.0 0.0 0.0 0.0 0.0 0.0 0.0 0.0 0.0 0.0 0.0 0.0 0.0 0.0 0.0 0.0 0.0 0.0 0.0 0.0 0.0 0.0 0.0 0.0 0.0 0.0 0.0 0.0 0.0
0.0 2.1 0.0 0.0 0.0 0.0 0.0 0.0 0.0 0.0 0.0 0.3 0.0 0.0 0.0 0.0 0.0 0.0 0.0 0.0 0.0 0.0 0.0 0.0 0.0 0.0 0.0 0.0 0.0 0.0 0.0 0.0 0.0 0.0 0.0 0.0 0.0 0.0 0.0 0.1 0.1 0.1 0.1 0.0
0.0 3.6 0.1 1.3 0.0 0.0 0.1 0.0 0.0 0.0 0.0 0.0 0.0 0.0 0.0 0.0 0.0 0.0 0.0 0.0 0.0 0.0 0.0 0.0 0.0 0.0 0.0 0.0 0.0 0.0 0.0 0.0 0.0 0.0 0.0 0.0 0.1 0.2 0.2 0.3 0.2 0.2 0.2 0.2
0.1 1.7 6.0 15.4 0.2 0.1 10.3 0.1 0.0 0.0 0.0 0.0 0.0 0.0 0.0 0.0 0.0 0.0 0.0 0.0 0.0 0.0 0.0 0.0 0.0 0.0 0.0 0.0 0.0 0.0 0.0 0.0 0.1 0.2 0.5 0.4 0.4 0.5 0.4 0.3 0.3 0.3 0.3 0.2
0.5 2.8 4.3 16.3 7.1 36.5 1.9 0.0 0.0 0.0 0.0 0.0 0.0 0.0 0.0 0.0 0.0 0.0 0.0 0.0 0.0 0.0 0.0 0.0 0.0 0.0 0.0 0.0 0.0 0.0 0.0 0.1 0.2 0.4 1.0 0.8 0.5 1.2 0.6 0.5 0.6 0.4 0.4 0.6
0.0 0.3 13.0 30.5 20.9 0.6 0.0 0.0 0.0 0.1 0.0 0.0 0.0 0.0 0.0 0.0 0.0 0.0 0.0 0.0 0.0 0.0 0.0 0.0 0.0 0.0 0.0 0.0 0.0 0.1 0.1 0.1 0.2 0.2 0.4 0.5 0.8 1.6 0.8 2.4 0.9 0.7 1.5 1.3
0.1 0.0 0.8 26.5 29.0 24.0 0.1 0.0 0.0 0.0 1.2 0.1 0.0 0.0 0.0 0.0 0.2 0.0 0.0 0.0 0.0 0.0 0.0 0.0 0.0 0.0 0.0 0.0 0.0 0.2 0.3 0.4 0.4 0.2 0.2 0.3 0.8 2.7 2.2 0.9 1.8 2.1 2.4 2.4
4.8 8.9 21.3 18.8 25.2 9.1 0.3 0.1 0.0 5.7 1.5 0.9 0.2 0.1 0.1 0.3 0.0 0.0 0.0 0.0 0.0 0.0 0.0 0.0 0.0 0.0 0.0 0.1 0.3 0.3 0.3 0.4 0.5 0.8 0.8 1.1 1.1 3.4 1.7 2.3 1.9 3.2 4.5 2.9
1.7 10.3 22.2 15.7 25.7 31.3 0.1 0.1 0.4 0.4 0.2 0.3 0.1 0.0 0.0 0.0 0.0 0.0 0.0 0.0 0.0 0.0 0.0 0.0 0.0 0.0 0.0 0.4 0.5 0.7 0.5 0.6 1.2 1.6 2.0 2.5 4.1 3.3 3.3 7.6 5.0 6.7 6.8 6.9
5.6 1.0 6.9 1.5 4.5 0.1 0.0 0.1 0.0 0.1 0.3 0.1 0.1 0.0 0.0 0.0 0.0 0.0 0.0 0.0 0.0 0.0 0.0 0.0 1.0 1.0 0.0 1.4 1.4 1.8 1.2 1.5 2.5 5.0 7.1 7.0 5.8 5.7 5.7 9.0 6.5 8.4 7.9 9.3
0.7 0.0 1.9 1.9 0.3 0.1 0.1 0.0 0.0 0.0 0.0 0.0 0.0 0.0 0.0 0.0 0.0 0.0 0.0 0.0 0.0 0.5 1.0 1.4 2.0 2.6 2.4 2.2 2.7 3.1 2.7 2.9 9.4 9.5 5.1 4.1 5.3 3.6 4.8 5.7 6.9 10.3 9.0 8.4
0.3 0.2 0.7 1.2 0.0 0.1 0.1 0.1 0.0 0.0 0.0 0.0 0.0 0.0 0.0 0.0 0.0 0.0 0.5 0.8 0.5 0.9 1.2 1.9 2.5 2.4 2.3 2.0 2.4 3.6 3.5 4.1 6.2 6.8 3.9 5.1 6.7 6.6 4.2 3.9 6.2 5.7 3.6 8.3
0.0 0.0 0.2 1.7 0.0 0.0 0.0 0.0 0.0 0.0 0.0 0.1 0.1 0.2 0.2 0.3 0.2 0.4 0.6 0.4 0.6 1.1 1.4 2.0 2.3 2.2 2.6 3.3 3.8 4.9 5.8 5.6 6.3 4.1 5.7 5.3 4.9 4.3 4.0 4.4 4.5 nan nan nan
Water_Equivalent
0.00 0.00 0.00 0.00 0.00 0.00 0.00 0.00 0.00 0.00 0.00 0.00 0.00 0.00 0.00 0.00 0.00 0.00 0.00 0.00 0.00 0.00 0.00 0.00 0.00 0.00 0.00 0.00 0.00 0.00 0.00 0.00 0.00 0.00 0.00 0.00 0.00 0.00 0.00 0.00 0.00 0.00 0.00 0.00
0.00 0.00 0.00 0.00 0.00 0.00 0.00 0.00 0.00 0.00 0.00 0.00 0.00 0.00 0.00 0.00 0.00 0.00 0.00 0.00 0.00 0.00 0.00 0.00 0.00 0.00 0.00 0.00 0.00 0.00 0.00 0.00 0.00 0.00 0.00 0.00 0.00 0.00 0.00 0.00 0.00 0.00 0.00 0.00
0.00 0.00 0.00 0.00 0.00 0.00 0.00 0.00 0.00 0.00 0.00 0.00 0.00 0.00 0.00 0.00 0.00 0.00 0.00 0.00 0.00 0.00 0.00 0.00 0.00 0.00 0.00 0.00 0.00 0.00 0.00 0.00 0.00 0.00 0.00 0.00 0.00 0.00 0.00 0.00 0.00 0.00 0.00 0.00
0.00 0.00 0.00 0.00 0.00 0.00 0.00 0.00 0.00 0.00 0.00 0.00 0.00 0.00 0.00 0.00 0.00 0.00 0.00 0.00 0.00 0.00 0.00 0.00 0.00 0.00 0.00 0.00 0.00 0.00 0.00 0.00 0.00 0.00 0.00 0.00 0.00 0.00 0.00 0.00 0.00 0.00 0.00 0.00
0.00 0.00 0.00 0.00 0.00 0.00 0.00 0.00 0.00 0.00 0.00 0.00 0.00 0.00 0.00 0.00 0.00 0.00 0.00 0.00 0.00 0.00 0.00 0.00 0.00 0.00 0.00 0.00 0.00 0.00 0.00 0.00 0.00 0.00 0.00 0.00 0.00 0.00 0.00 0.00 0.00 0.00 0.00 0.00
0.00 0.00 0.00 0.00 0.00 0.00 0.00 0.00 0.00 0.00 0.00 0.02 0.00 0.00 0.00 0.00 0.00 0.00 0.00 0.00 0.00 0.00 0.00 0.00 0.00 0.00 0.00 0.00 0.00 0.00 0.00 0.00 0.00 0.00 0.00 0.00 0.00 0.00 0.00 0.00 0.00 0.00 0.00 0.00
0.00 0.00 0.00 0.00 0.00 0.00 0.00 0.00 0.03 0.07 0.23 0.10 0.00 0.02 0.00 0.00 0.00 0.00 0.00 0.00 0.00 0.00 0.00 0.00 0.00 0.00 0.00 0.00 0.00 0.00 0.00 0.00 0.00 0.00 0.00 0.00 0.00 0.00 0.00 0.00 0.00 0.00 0.00 0.00
0.00 0.00 0.00 0.00 0.00 0.00 0.00 0.00 0.07 0.12 0.19 0.07 0.02 0.03 0.00 0.00 0.00 0.00 0.00 0.00 0.00 0.00 0.00 0.00 0.00 0.00 0.00 0.00 0.00 0.00 0.00 0.00 0.00 0.00 0.00 0.00 0.00 0.00 0.00 0.00 0.00 0.00 0.00 0.00
0.00 0.00 0.00 0.00 0.00 0.00 0.00 0.00 0.00 0.02 0.41 0.27 0.00 0.00 0.00 0.00 0.00 0.00 0.00 0.00 0.00 0.00 0.00 0.00 0.00 0.00 0.00 0.00 0.00 0.00 0.00 0.00 0.00 0.00 0.00 0.00 0.00 0.00 0.00 0.00 0.00 0.00 0.00 0.00
0.00 0.00 0.00 0.00 0.00 0.00 0.00 0.00 0.04 0.04 0.56 0.34 0.00 0.00 0.00 0.00 0.00 0.00 0.00 0.00 0.00 0.00 0.00 0.00 0.00 0.00 0.00 0.00 0.00 0.00 0.00 0.00 0.00 0.00 0.00 0.00 0.00 0.00 0.00 0.00 0.00 0.00 0.00 0.00
0.00 0.00 0.00 0.00 0.00 0.00 0.00 0.00 0.00 0.00 0.05 0.25 0.24 0.01 0.00 0.00 0.00 0.00 0.00 0.00 0.00 0.00 0.00 0.00 0.00 0.00 0.00 0.00 0.00 0.00 0.00 0.00 0.00 0.00 0.00 0.00 0.00 0.00 0.00 0.00 0.00 0.00 0.00 0.00
0.00 0.00 0.28 0.00 0.00 0.00 0.00 0.00 0.00 0.14 0.05 0.07 0.16 0.16 0.00 0.00 0.00 0.00 0.00 0.00 0.00 0.00 0.00 0.00 0.00 0.00 0.00 0.00 0.00 0.00 0.00 0.00 0.00 0.00 0.00 0.00 0.00 0.00 0.00 0.00 0.00 0.00 0.00 0.00
0.00 0.08 0.61 0.15 0.00 0.00 0.00 0.00 0.00 0.01 0.16 0.49 0.94 0.22 0.00 0.00 0.00 0.00 0.00 0.00 0.00 0.00 0.00 0.00 0.00 0.00 0.00 0.00 0.00 0.00 0.00 0.00 0.00 0.00 0.00 0.00 0.00 0.00 0.00 0.00 0.00 0.00 0.00 0.00
nan 0.01 0.04 0.18 0.01 0.00 0.03 0.01 0.00 0.00 0.47 0.13 0.12 0.01 0.00 0.00 0.00 0.00 0.00 0.00 0.00 0.00 0.00 0.00 0.00 0.00 0.00 0.00 0.00 0.00 0.00 0.00 0.00 0.00 0.00 0.00 0.00 0.00 0.00 0.00 0.00 0.00 0.00 0.00
0.00 0.52 0.00 0.00 0.00 0.00 0.01 0.01 0.00 0.00 0.00 0.06 0.00 0.00 0.00 0.00 0.00 0.00 0.00 0.00 0.00 0.00 0.00 0.00 0.00 0.00 0.00 0.00 0.00 0.00 0.00 0.00 0.00 0.00 0.00 0.00 0.00 0.00 0.00 0.02 0.02 0.02 0.02 0.00
0.00 0.87 0.04 0.33 0.00 0.00 0.04 0.00 0.01 0.00 0.00 0.00 0.00 0.00 0.00 0.00 0.00 0.00 0.00 0.00 0.00 0.00 0.00 0.00 0.00 0.00 0.00 0.00 0.00 0.00 0.00 0.00 0.00 0.00 0.00 0.00 0.03 0.04 0.05 0.05 0.04 0.03 0.03 0.03
0.02 0.51 1.57 2.68 0.05 0.04 1.43 0.04 0.00 0.00 0.00 0.00 0.01 0.00 0.00 0.00 0.00 0.00 0.00 0.00 0.00 0.00 0.00 0.00 0.00 0.00 0.00 0.00 0.00 0.00 0.00 0.00 0.03 0.04 0.09 0.08 0.07 0.08 0.06 0.05 0.05 0.04 0.04 0.04
0.16 0.81 1.22 3.21 1.53 4.18 0.35 0.00 0.00 0.00 0.00 0.00 0.00 0.00 0.00 0.00 0.00 0.00 0.00 0.00 0.00 0.00 0.00 0.00 0.00 0.00 0.00 0.00 0.00 0.00 0.01 0.02 0.04 0.07 0.15 0.12 0.07 0.16 0.08 0.07 0.08 0.06 0.05 0.07
0.00 0.10 2.49 4.13 2.68 0.13 0.01 0.00 0.00 0.01 0.01 0.00 0.00 0.00 0.00 0.00 0.00 0.00 0.00 0.00 0.00 0.00 0.00 0.00 0.00 0.00 0.00 0.00 0.00 0.02 0.03 0.03 0.03 0.04 0.06 0.07 0.11 0.20 0.10 0.29 0.11 0.08 0.17 0.14
0.02 0.01 0.24 3.85 3.90 2.84 0.02 0.00 0.00 0.00 0.25 0.02 0.01 0.01 0.00 0.01 0.06 0.00 0.00 0.00 0.00 0.00 0.00 0.00 0.00 0.00 0.00 0.00 0.00 0.03 0.04 0.06 0.05 0.04 0.04 0.05 0.11 0.34 0.27 0.12 0.22 0.26 0.28 0.25
0.89 1.83 3.48 3.09 3.57 1.51 0.08 0.03 0.00 0.70 0.30 0.22 0.05 0.02 0.03 0.08 0.00 0.00 0.00 0.00 0.00 0.00 0.00 0.00 0.00 0.00 0.00 0.02 0.04 0.04 0.04 0.06 0.07 0.11 0.11 0.13 0.14 0.41 0.21 0.28 0.24 0.39 0.48 0.30
0.25 1.39 3.37 2.65 3.39 3.77 0.04 0.02 0.07 0.08 0.06 0.07 0.02 0.00 0.01 0.00 0.00 0.00 0.00 0.00 0.00 0.00 0.00 0.00 0.00 0.00 0.00 0.06 0.08 0.09 0.06 0.08 0.15 0.19 0.22 0.28 0.47 0.40 0.41 0.86 0.56 0.78 0.73 0.73
0.70 0.17 1.07 0.31 0.78 0.02 0.01 0.03 0.01 0.03 0.09 0.04 0.02 0.01 0.00 0.00 0.00 0.00 0.00 0.00 0.00 0.00 0.00 0.00 0.14 0.13 0.00 0.17 0.18 0.22 0.13 0.16 0.25 0.51 0.73 0.74 0.66 0.67 0.68 1.03 0.68 0.95 0.85 1.00
0.13 0.01 0.36 0.31 0.06 0.03 0.03 0.01 0.00 0.01 0.01 0.00 0.01 0.01 0.00 0.01 0.00 0.00 0.00 0.01 0.00 0.08 0.14 0.17 0.23 0.27 0.26 0.23 0.28 0.32 0.27 0.28 1.00 1.00 0.52 0.40 0.53 0.43 0.53 0.73 0.87 1.27 1.03 0.88
0.07 0.06 0.14 0.19 0.00 0.01 0.02 0.02 0.00 0.00 0.00 0.00 0.00 0.00 0.00 0.00 0.00 0.00 0.08 0.12 0.07 0.11 0.14 0.20 0.25 0.25 0.23 0.20 0.22 0.35 0.32 0.40 0.62 0.67 0.36 0.51 0.73 0.80 0.46 0.42 0.73 0.64 0.43 0.94
0.01 0.00 0.03 0.24 0.00 0.01 0.01 0.00 0.00 0.00 0.00 0.02 0.02 0.04 0.04 0.05 0.04 0.06 0.09 0.07 0.09 0.13 0.16 0.20 0.23 0.20 0.22 0.28 0.32 0.45 0.62 0.61 0.63 0.37 0.56 0.55 0.55 0.48 0.43 0.44 0.46 nan nan nan
SL_Ratio
nan nan nan nan nan nan nan nan nan nan nan nan nan nan nan nan nan nan nan nan nan nan nan nan nan nan nan nan nan nan nan nan nan nan nan nan nan nan nan nan nan nan nan nan
nan nan nan nan nan nan nan nan nan nan nan nan nan nan nan nan nan nan nan nan nan nan nan nan nan nan nan nan nan nan nan nan nan nan nan nan nan nan nan nan nan nan nan nan
nan nan nan nan nan nan nan nan nan nan nan nan nan nan nan nan nan nan nan nan nan nan nan nan nan nan nan nan nan nan nan nan nan nan nan nan nan nan nan nan nan nan nan nan
nan nan nan nan nan nan nan nan nan nan nan nan nan nan nan nan nan nan nan nan nan nan nan nan nan nan nan nan nan nan nan nan nan nan nan nan nan nan nan nan nan nan nan nan
nan nan nan nan nan nan nan nan nan nan nan nan nan nan nan nan nan nan nan nan nan nan nan nan nan nan nan nan nan nan nan nan nan nan nan nan nan nan nan nan nan nan nan nan
nan nan nan nan nan nan nan nan nan nan nan 4.4 nan nan nan nan nan nan nan nan nan nan nan nan nan nan nan nan nan nan nan nan nan nan nan nan nan nan nan nan nan nan nan nan
nan nan nan nan nan nan nan nan 4.2 4.3 4.6 4.3 nan 4.1 nan nan nan nan nan nan nan nan nan nan nan nan nan nan nan nan nan nan nan nan nan nan nan nan nan nan nan nan nan nan
nan nan nan nan nan nan nan nan 4.0 5.3 4.8 4.1 4.3 4.4 nan nan nan nan nan nan nan nan nan nan nan nan nan nan nan nan nan nan nan nan nan nan nan nan nan nan nan nan nan nan
0.0 4.0 nan nan nan nan nan nan nan 4.4 5.5 4.5 nan nan nan nan nan nan nan nan nan nan nan nan nan nan nan nan nan nan nan nan nan nan nan nan nan nan nan nan nan nan nan nan
nan 4.5 nan nan nan nan nan nan 4.4 4.3 6.0 6.5 nan nan nan nan nan nan nan nan nan nan nan nan nan nan nan nan nan nan nan nan nan nan nan nan nan nan nan nan nan nan nan nan
nan nan nan nan nan nan nan nan nan nan 4.3 5.0 5.1 4.4 nan nan nan nan nan nan nan nan nan nan nan nan nan nan nan nan nan nan nan nan nan nan nan nan nan nan nan nan nan nan
nan nan 4.1 nan nan nan nan nan nan 4.1 4.9 4.4 4.1 5.1 nan nan nan nan nan nan nan nan nan nan nan nan nan nan nan nan nan nan nan nan nan nan nan nan nan nan nan nan nan nan
nan 3.3 4.6 4.6 3.3 nan nan nan nan 2.9 3.6 4.7 5.6 5.0 nan nan nan nan nan nan nan nan nan nan nan nan nan nan nan nan nan nan nan nan nan nan nan nan nan nan nan nan nan nan
nan 2.7 3.7 3.8 4.1 nan 4.1 3.6 2.9 nan 4.8 3.7 3.9 3.0 nan nan nan nan nan nan nan nan nan nan nan nan nan nan nan nan nan nan nan nan nan nan nan nan nan nan nan nan nan nan
nan 4.0 2.7 nan nan nan 3.4 3.3 nan nan nan 4.6 nan 0.0 nan nan nan nan nan nan nan nan nan nan nan nan nan nan nan nan nan nan nan nan nan nan nan nan 4.2 4.3 4.5 4.6 4.8 nan
nan 4.2 3.1 4.0 0.0 0.0 3.3 2.0 2.6 5.0 nan nan nan nan nan nan nan nan nan nan nan nan nan nan nan nan nan nan nan nan nan nan nan 0.0 5.0 5.0 4.7 5.0 5.2 5.1 5.2 5.3 5.9 5.8
2.9 3.4 3.8 5.7 3.5 3.4 7.2 3.6 nan nan nan nan 3.6 nan 4.0 nan nan nan nan nan nan nan nan nan nan nan nan nan nan nan nan 3.3 4.6 5.0 5.4 5.4 5.6 6.8 5.9 5.9 6.8 7.0 6.9 6.4
3.3 3.5 3.5 5.1 4.6 8.7 5.4 nan nan nan nan 10.0 5.0 3.3 nan nan nan nan nan nan nan nan nan nan nan nan nan nan nan nan 3.5 4.3 5.0 5.7 6.7 7.2 7.0 7.6 7.6 7.6 7.6 7.2 7.0 7.8
5.0 3.3 5.2 7.4 7.8 4.5 3.9 nan 10.0 4.3 3.8 nan nan nan nan nan nan nan nan nan nan nan nan nan nan nan nan nan nan 4.2 4.9 5.2 5.5 5.7 6.4 7.1 7.5 7.8 7.9 8.3 8.2 8.2 9.0 9.2
3.2 3.5 3.4 6.9 7.5 8.4 4.4 5.0 nan nan 4.8 3.6 3.2 3.2 3.3 2.8 4.1 nan nan nan nan nan nan nan nan nan nan nan nan 5.5 6.7 7.1 6.9 6.6 6.4 7.0 7.7 8.1 8.3 8.1 8.4 8.1 8.4 9.6
5.4 4.8 6.1 6.1 7.1 6.0 3.5 3.9 2.5 8.1 5.0 4.2 4.1 3.8 3.9 3.4 nan nan nan nan nan nan nan nan nan nan nan 5.2 6.2 7.3 7.2 7.2 6.5 7.0 7.5 8.1 8.0 8.3 8.1 8.0 7.8 8.2 9.5 9.4
6.9 7.4 6.6 5.9 7.6 8.3 3.4 4.0 5.9 4.4 4.1 3.9 3.9 4.3 3.6 0.0 nan nan nan nan nan nan nan nan nan nan nan 7.1 6.8 7.7 7.8 7.8 8.0 8.5 8.8 8.9 8.7 8.2 8.1 8.8 9.0 8.6 9.3 9.4
8.1 5.7 6.4 4.8 5.7 3.3 3.3 3.4 2.8 3.1 3.7 3.7 3.8 4.0 5.0 3.6 0.0 nan nan nan nan nan nan nan 7.5 8.0 6.0 8.0 8.0 8.3 8.7 9.1 10.1 9.8 9.6 9.6 8.8 8.6 8.5 8.7 9.6 8.8 9.3 9.3
5.5 4.4 5.3 6.3 5.5 4.5 4.2 3.6 0.0 3.5 3.3 0.0 3.8 3.8 4.2 4.3 nan nan 10.0 4.8 nan 6.6 6.8 7.9 8.5 9.5 9.3 9.3 9.6 9.7 10.0 10.2 9.4 9.4 10.0 10.3 10.0 8.3 9.0 7.9 8.0 8.1 8.7 9.5
4.5 3.7 5.1 6.0 4.0 5.4 4.2 4.0 3.0 nan nan nan nan nan 4.0 nan nan nan 6.0 6.3 6.4 8.3 9.0 9.6 9.8 9.8 9.9 10.0 10.7 10.3 10.8 10.2 9.9 10.1 10.8 10.0 9.2 8.2 9.1 9.3 8.4 8.9 8.5 8.9
5.6 6.0 6.9 7.2 5.5 4.3 5.0 nan nan nan nan 4.6 4.9 5.4 5.7 5.5 5.5 6.4 6.6 6.5 6.9 7.9 9.2 9.8 10.3 10.7 12.0 11.9 11.7 10.9 9.4 9.2 10.1 10.9 10.3 9.7 9.0 8.9 9.3 10.0 9.9 nan nan nan